Wind_Speed
23 24 25 26 27 28 28 28 28 28 28 27 26 26 25 25 24 25 24 22 22 22 21 21 20 19 18 17 17 17 16 16 16 16 15 15 14 14 14 13 13 13 12 12 12 11 11 10 10
23 24 25 26 28 28 28 28 29 30 29 28 28 27 26 26 26 25 25 24 23 23 22 21 20 20 19 18 18 18 18 17 17 17 16 15 15 15 14 14 14 13 13 13 13 12 12 12 12
24 24 25 27 28 28 29 29 30 31 31 28 28 28 27 28 27 25 25 26 25 24 23 23 20 20 20 19 18 18 18 18 18 17 17 16 16 15 15 15 14 14 14 14 14 13 13 13 13
24 25 26 26 27 27 28 29 29 30 29 29 29 29 29 28 28 26 25 26 26 25 24 24 22 21 21 20 19 19 19 18 18 17 17 17 17 16 16 16 16 15 15 15 14 14 14 14 14
24 25 26 26 25 25 27 27 28 29 29 28 29 30 29 28 28 26 26 26 27 26 25 25 24 23 23 22 21 20 20 19 19 19 19 19 18 18 17 17 17 16 16 16 15 15 15 15 15
25 25 26 25 25 25 25 25 25 27 29 28 29 30 29 27 27 26 25 27 27 28 27 26 25 25 24 23 22 22 22 20 20 20 20 19 19 19 18 18 17 17 17 17 16 16 16 16 16
25 26 25 25 25 24 24 25 25 27 27 28 29 29 28 27 28 28 27 28 28 29 29 27 27 27 26 24 24 24 23 21 21 21 21 20 20 20 20 20 19 19 18 19 19 18 18 18 18
25 26 25 24 24 24 23 24 25 26 27 27 29 30 27 27 27 27 27 27 29 29 29 28 28 28 27 26 26 25 24 23 22 22 22 21 21 21 21 21 21 20 20 20 20 20 19 19 19
26 27 25 24 24 23 23 23 25 26 26 28 29 29 28 26 27 28 27 28 28 28 29 28 28 28 27 27 27 27 26 25 24 23 23 23 22 22 22 22 22 22 21 21 21 21 21 21 21
25 25 24 25 24 24 23 24 25 25 26 27 28 28 28 26 26 28 28 28 28 28 28 28 27 27 27 27 28 28 28 27 25 24 23 23 24 23 23 22 23 22 22 22 21 22 22 22 21
24 24 23 23 24 24 23 23 24 24 24 25 26 26 27 27 26 27 29 29 28 29 29 28 29 28 28 28 27 27 27 26 26 25 25 23 23 23 23 23 23 23 23 22 22 22 22 22 22
20 20 20 21 23 23 23 22 22 23 23 24 24 25 27 26 26 27 28 28 28 29 29 28 28 28 29 29 28 27 28 27 27 26 25 25 23 23 23 23 23 24 23 23 23 23 23 24 24
18 18 19 19 21 22 22 23 22 22 21 22 22 23 24 25 25 27 29 29 28 29 29 28 28 28 29 29 29 29 29 28 27 27 26 26 26 26 25 25 24 24 24 24 24 24 24 24 24
17 17 17 18 19 20 21 21 21 20 20 20 21 21 22 24 26 27 29 29 28 29 29 29 27 27 28 29 30 30 30 29 28 28 27 27 28 28 27 27 26 25 25 25 25 25 25 25 25
16 16 17 17 18 19 20 20 20 19 19 19 20 20 21 23 25 27 28 29 29 29 29 29 29 28 26 28 30 30 31 30 29 29 29 28 28 28 28 27 28 27 26 27 27 27 26 27 27
16 16 16 16 17 17 18 18 18 18 19 19 19 20 21 22 24 26 27 28 29 29 29 28 29 28 27 28 30 31 31 30 29 29 29 29 29 30 30 29 29 30 29 29 29 29 28 28 28
16 16 15 15 15 16 16 17 17 18 18 18 19 20 20 22 23 24 26 27 28 29 29 29 29 28 28 28 29 30 31 31 30 29 30 30 30 31 31 31 32 31 31 31 31 31 30 29 30
15 15 15 15 14 14 15 15 16 17 18 19 19 20 20 21 23 23 24 26 27 27 28 29 29 29 28 28 29 29 30 30 30 30 30 31 31 31 32 32 33 33 33 33 32 32 32 32 32
15 15 14 15 14 14 14 14 15 16 17 18 19 20 21 21 22 23 25 25 25 26 27 29 29 29 29 28 29 29 30 31 31 31 32 32 32 33 33 33 33 34 33 33 33 34 34 35 35
15 15 15 15 14 15 15 14 14 15 16 17 18 19 20 21 22 24 25 26 26 26 27 27 29 29 29 29 29 30 31 31 31 32 33 34 34 34 34 35 34 34 33 34 34 35 35 36 37
15 15 15 15 15 15 14 14 14 15 17 17 19 20 21 21 22 24 25 25 26 26 27 28 29 29 29 29 30 31 31 32 32 34 34 34 34 34 34 35 35 35 34 34 35 35 36 36 37
16 15 15 15 16 16 16 17 16 16 17 18 19 20 21 21 22 23 25 26 26 27 27 27 28 30 30 30 31 32 31 32 32 32 33 34 34 34 35 35 35 35 35 35 36 37 37 38 38
16 16 16 17 17 18 17 17 16 17 17 18 20 20 20 21 22 23 25 26 26 27 28 28 29 30 30 30 30 30 31 31 31 31 31 32 33 34 35 36 36 37 37 37 38 38 39 39 39
17 17 17 18 19 19 17 18 17 17 18 19 20 21 21 22 23 24 25 26 26 27 29 29 30 31 31 31 31 31 31 32 32 32 33 33 33 35 36 36 37 39 39 39 39 39 40 40 41
18 17 18 19 20 20 18 19 18 18 19 19 21 22 23 24 24 25 27 27 27 28 29 30 31 32 33 33 33 33 33 34 34 34 35 35 35 36 36 37 38 40 41 41 41 41 42 42 43
19 19 20 20 21 21 20 21 20 19 19 20 21 23 24 26 26 27 28 28 28 29 30 30 31 32 33 34 35 35 35 36 36 36 36 37 37 37 38 38 40 41 42 42 42 43 43 44 44
21 22 22 23 23 24 24 24 23 22 22 22 23 24 25 27 27 28 29 30 31 31 32 32 33 33 34 34 35 36 36 37 37 38 38 38 38 39 39 40 41 42 43 44 44 45 45 45 45
23 23 24 25 25 26 26 25 25 24 24 24 25 26 27 28 29 29 31 32 32 32 33 34 34 35 36 36 36 36 37 38 39 40 40 40 40 41 41 42 43 44 45 46 46 46 46 47 47
25 25 26 27 28 29 29 28 27 26 26 27 27 27 29 30 30 31 32 33 34 35 35 35 36 36 36 37 37 37 38 40 41 42 42 42 43 43 44 44 45 46 47 47 47 47 48 48 48
28 28 28 29 29 30 31 30 29 28 29 29 30 29 30 31 32 33 34 34 35 35 36 36 37 38 38 39 39 40 40 42 43 44 44 45 45 46 46 47 46 47 48 48 49 48 49 49 50
Wind_Direction
270 268 267 264 263 263 262 261 260 257 255 255 253 251 250 248 244 247 248 246 243 239 237 237 236 236 236 235 234 234 235 236 236 237 237 236 235 236 236 236 236 237 238 239 238 237 238 240 242
272 269 267 266 265 264 263 260 258 257 255 253 251 248 247 246 245 248 246 243 241 238 237 235 235 235 235 235 236 236 236 237 237 236 236 235 234 234 235 236 237 239 240 241 241 240 241 243 246
271 270 269 268 266 264 263 261 259 258 255 252 248 246 246 244 244 247 247 242 239 237 236 236 235 235 235 235 236 237 237 238 239 236 236 236 236 236 236 238 238 240 242 243 242 243 244 246 248
272 270 269 269 267 265 263 260 258 257 253 249 247 245 245 245 244 243 244 241 237 237 237 236 235 236 236 235 235 236 237 238 238 237 237 238 238 237 238 240 241 243 244 245 244 244 246 248 250
272 272 270 269 267 265 264 261 257 254 250 247 246 244 244 244 241 242 243 239 235 234 235 236 236 236 236 234 235 236 237 237 238 239 239 241 241 239 240 241 243 245 246 246 247 247 248 250 252
273 273 271 270 268 267 265 261 255 252 250 247 245 244 243 242 239 239 241 238 235 233 234 234 234 235 235 236 234 235 237 237 239 240 240 241 242 243 242 242 243 245 246 247 249 250 251 254 256
274 273 272 271 268 266 264 260 255 252 248 246 244 244 244 242 238 238 240 237 233 232 235 233 232 233 235 236 234 234 236 238 239 240 240 241 242 243 243 243 244 246 248 250 251 253 254 256 257
275 273 272 271 269 266 263 258 254 251 248 247 245 243 242 243 238 238 238 237 233 233 234 233 231 232 234 236 234 235 237 238 239 240 242 243 244 243 243 245 246 248 250 252 252 253 256 257 258
276 273 271 269 269 266 262 256 255 252 248 246 244 244 243 242 238 236 236 236 234 232 232 233 231 232 234 235 236 237 238 239 241 242 243 244 244 244 244 246 248 249 252 254 254 255 256 259 260
277 275 272 269 267 266 262 258 255 254 250 248 245 244 242 241 238 235 235 235 234 231 233 234 234 234 234 235 237 237 238 239 241 244 244 244 245 246 246 246 249 250 253 255 257 258 258 259 260
280 278 273 268 267 266 263 261 256 256 253 252 249 244 240 238 235 234 234 233 231 231 231 234 235 236 235 236 237 237 238 239 243 246 246 246 246 246 247 249 250 252 254 256 258 259 260 260 261
285 282 277 272 271 269 265 263 260 257 256 255 251 245 239 239 236 234 233 232 230 229 231 235 235 235 236 236 236 238 239 240 243 246 247 247 249 248 247 250 252 254 256 258 259 259 260 262 263
286 283 280 278 273 269 266 264 262 257 255 255 249 242 240 239 235 234 232 233 231 231 234 236 239 240 239 238 237 238 240 243 246 248 249 251 252 251 251 252 254 255 257 259 259 259 260 263 264
289 286 283 280 275 271 267 263 262 259 258 255 251 247 244 240 235 234 234 234 237 238 236 237 239 241 241 241 241 240 242 245 247 249 252 254 253 253 253 254 254 257 260 260 261 262 261 263 265
293 291 286 280 276 271 266 263 263 261 260 258 254 252 246 242 237 236 237 237 238 239 238 238 241 243 244 243 243 243 245 248 250 251 252 253 254 256 256 256 256 258 259 260 261 263 263 264 266
292 291 289 284 278 271 265 264 263 263 259 257 255 252 246 240 238 238 238 238 238 238 239 240 242 245 247 248 246 248 248 249 251 251 252 253 255 256 257 257 258 259 261 261 262 264 264 265 267
293 290 288 284 278 273 267 266 264 264 262 258 256 251 245 240 241 242 241 240 239 239 239 241 244 247 249 250 252 253 252 252 255 253 252 253 256 257 258 259 259 259 260 262 264 265 266 267 267
296 292 288 284 281 275 270 268 267 264 260 258 255 249 245 244 245 244 244 243 242 240 241 243 246 248 250 253 254 254 254 254 255 254 254 256 258 259 260 260 261 260 260 262 263 265 267 269 270
296 293 288 286 283 277 272 268 266 261 256 255 252 248 247 246 246 247 246 246 245 244 244 244 245 246 249 252 252 255 255 255 257 256 257 258 259 260 260 260 262 262 262 263 264 266 268 270 271
292 290 287 285 282 278 275 267 265 258 255 254 250 248 248 248 248 248 248 247 247 247 246 245 245 248 251 253 255 255 256 256 259 258 258 259 260 261 262 262 263 264 264 266 266 269 271 271 272
288 289 288 286 280 278 275 270 268 260 257 253 251 250 250 249 247 247 247 246 245 246 246 247 249 250 253 255 256 258 258 258 260 261 260 260 260 260 261 261 263 265 266 268 269 270 272 273 274
284 284 285 285 281 278 279 275 272 267 261 256 254 253 251 249 247 246 245 245 245 246 246 248 251 253 256 257 258 259 260 261 261 262 262 260 259 260 261 262 265 267 267 269 270 272 272 273 274
283 282 282 283 282 278 279 279 276 272 265 261 258 255 253 251 251 249 247 247 249 249 250 253 255 256 258 259 259 260 261 263 263 264 264 260 259 261 262 264 267 268 269 270 271 272 272 273 274
282 281 281 281 282 280 281 280 277 275 271 265 260 257 254 254 254 253 252 252 255 255 254 257 259 259 260 262 262 262 263 263 265 266 266 264 262 262 263 265 267 268 270 270 271 272 273 274 275
279 279 280 282 282 281 281 279 279 277 275 269 264 260 257 257 256 257 256 257 258 259 260 261 260 262 263 264 264 264 264 265 266 268 269 268 267 267 267 268 269 269 270 271 272 273 273 274 275
277 277 279 282 284 282 281 281 281 280 276 272 268 263 260 258 257 258 259 260 261 261 263 264 264 264 265 265 265 266 265 266 266 268 269 270 269 270 270 271 271 271 271 272 273 273 274 274 275
277 276 278 280 282 283 281 280 280 280 277 274 271 266 262 260 260 260 261 263 264 265 265 265 266 267 268 266 267 266 267 267 267 267 269 270 270 271 271 272 273 273 273 273 275 274 274 275 276
279 279 279 278 280 282 281 283 284 282 279 278 274 269 265 263 263 263 263 265 267 266 267 267 267 267 268 268 268 270 268 267 267 268 270 271 271 272 273 273 274 274 274 274 276 276 275 275 276
280 278 277 277 277 280 281 282 285 284 281 278 275 273 270 266 265 264 264 266 267 267 267 268 269 268 270 270 270 271 270 268 268 269 270 271 272 273 273 274 275 276 276 276 276 276 276 276 276
278 277 276 276 276 277 280 281 282 282 280 278 275 273 271 269 268 268 268 269 269 269 269 268 270 270 271 271 270 271 271 270 269 269 270 272 272 273 274 275 275 276 276 276 277 278 277 277 277
Height
5807 5807 5807 5808 5808 5807 5808 5810 5811 5813 5814 5815 5816 5818 5820 5822 5824 5827 5828 5829 5831 5833 5835 5837 5839 5841 5843 5844 5846 5847 5849 5850 5851 5852 5853 5854 5855 5856 5857 5858 5859 5860 5861 5861 5862 5863 5864 5864 5865
5800 5801 5801 5800 5800 5800 5802 5803 5804 5805 5807 5809 5811 5812 5814 5816 5818 5820 5822 5824 5827 5829 5831 5833 5835 5838 5840 5841 5843 5844 5845 5847 5848 5849 5850 5851 5852 5853 5854 5855 5856 5857 5858 5859 5860 5861 5862 5862 5863
5794 5794 5794 5793 5793 5793 5794 5796 5797 5797 5800 5802 5804 5807 5809 5811 5814 5815 5817 5820 5822 5825 5827 5829 5831 5834 5836 5838 5840 5841 5842 5844 5845 5846 5847 5848 5850 5851 5852 5853 5854 5855 5856 5857 5857 5858 5859 5860 5861
5788 5787 5787 5786 5786 5787 5787 5788 5789 5790 5792 5795 5797 5800 5802 5805 5809 5811 5812 5814 5817 5820 5823 5825 5827 5830 5832 5834 5836 5838 5839 5840 5842 5843 5844 5845 5847 5848 5849 5850 5851 5852 5853 5854 5855 5856 5856 5857 5858
5781 5780 5780 5779 5780 5780 5780 5781 5782 5782 5784 5788 5791 5793 5796 5799 5802 5805 5806 5809 5812 5815 5818 5821 5823 5826 5828 5830 5832 5834 5835 5837 5838 5839 5841 5842 5843 5844 5846 5847 5848 5849 5850 5851 5852 5853 5854 5854 5855
5775 5774 5773 5773 5774 5774 5774 5775 5775 5776 5778 5781 5784 5787 5789 5793 5796 5799 5801 5803 5807 5810 5813 5815 5818 5821 5823 5825 5827 5830 5831 5832 5834 5836 5837 5839 5840 5841 5842 5844 5845 5846 5847 5848 5849 5850 5850 5851 5852
5769 5767 5767 5767 5767 5768 5768 5768 5769 5770 5772 5775 5777 5780 5783 5786 5790 5792 5794 5798 5802 5804 5807 5810 5813 5816 5818 5820 5823 5825 5827 5828 5830 5832 5833 5835 5836 5837 5839 5840 5841 5842 5843 5844 5846 5846 5847 5848 5848
5763 5762 5761 5762 5761 5762 5762 5762 5762 5764 5766 5769 5771 5774 5777 5781 5784 5786 5788 5792 5796 5798 5802 5805 5808 5811 5813 5816 5819 5821 5823 5825 5826 5827 5829 5831 5832 5833 5835 5836 5837 5838 5839 5840 5842 5843 5843 5844 5845
5756 5756 5756 5756 5755 5756 5756 5756 5757 5758 5760 5762 5765 5768 5772 5774 5777 5780 5782 5786 5790 5793 5796 5799 5802 5806 5808 5811 5814 5816 5819 5820 5822 5823 5824 5826 5828 5829 5831 5832 5833 5834 5835 5836 5837 5838 5839 5840 5840
5751 5750 5751 5750 5749 5749 5750 5750 5752 5753 5755 5757 5760 5763 5765 5768 5771 5774 5777 5780 5784 5787 5791 5795 5798 5801 5803 5806 5809 5811 5814 5816 5817 5819 5820 5821 5823 5825 5826 5828 5829 5830 5831 5832 5833 5834 5834 5835 5836
5746 5745 5745 5744 5744 5744 5745 5746 5747 5748 5750 5752 5754 5757 5760 5762 5765 5768 5771 5775 5779 5782 5785 5790 5793 5796 5798 5801 5804 5806 5808 5811 5813 5814 5815 5817 5818 5820 5822 5823 5824 5825 5826 5827 5828 5829 5830 5831 5832
5741 5740 5739 5739 5739 5739 5740 5741 5742 5744 5746 5747 5749 5751 5755 5757 5760 5763 5767 5770 5774 5777 5780 5784 5787 5790 5793 5795 5798 5800 5803 5805 5807 5809 5810 5812 5814 5815 5817 5818 5819 5820 5822 5823 5823 5824 5825 5826 5827
5737 5736 5735 5735 5735 5735 5735 5736 5737 5739 5740 5741 5743 5745 5749 5752 5755 5758 5761 5765 5769 5772 5775 5777 5781 5784 5787 5790 5792 5795 5797 5800 5802 5804 5805 5807 5808 5810 5812 5813 5814 5815 5816 5818 5819 5819 5820 5821 5822
5733 5732 5732 5731 5731 5731 5731 5732 5732 5735 5736 5737 5739 5741 5744 5747 5751 5753 5757 5760 5764 5766 5769 5773 5776 5778 5781 5784 5787 5789 5792 5794 5796 5798 5800 5801 5803 5805 5806 5808 5809 5810 5811 5812 5813 5814 5815 5816 5816
5730 5729 5729 5728 5727 5727 5728 5729 5730 5731 5732 5733 5735 5737 5740 5743 5746 5749 5752 5756 5759 5761 5764 5768 5771 5773 5775 5778 5781 5783 5786 5788 5790 5792 5794 5796 5797 5798 5800 5802 5803 5804 5805 5806 5807 5808 5809 5810 5810
5727 5726 5726 5725 5724 5724 5725 5726 5727 5726 5728 5729 5731 5733 5736 5739 5741 5744 5747 5750 5753 5757 5760 5763 5766 5767 5770 5773 5776 5778 5780 5782 5784 5786 5788 5790 5791 5792 5794 5796 5797 5798 5799 5800 5801 5802 5803 5803 5804
5724 5723 5723 5723 5722 5721 5721 5722 5723 5723 5724 5725 5727 5729 5732 5735 5738 5740 5743 5746 5748 5751 5755 5758 5761 5763 5765 5768 5769 5772 5773 5775 5777 5780 5781 5783 5785 5786 5787 5789 5790 5791 5793 5793 5794 5795 5796 5796 5797
5722 5721 5720 5719 5719 5719 5718 5719 5719 5720 5721 5722 5723 5726 5728 5731 5733 5736 5739 5741 5744 5747 5749 5752 5755 5758 5760 5762 5764 5765 5767 5769 5771 5773 5775 5776 5778 5779 5781 5782 5783 5784 5786 5786 5787 5788 5788 5789 5790
5719 5718 5717 5717 5716 5716 5716 5716 5716 5717 5718 5719 5720 5722 5724 5727 5729 5731 5734 5737 5739 5742 5744 5747 5750 5752 5755 5756 5758 5760 5762 5763 5765 5767 5768 5769 5771 5772 5774 5775 5776 5777 5778 5779 5780 5780 5781 5781 5781
5717 5716 5715 5715 5714 5713 5713 5714 5714 5714 5715 5716 5717 5719 5721 5723 5725 5727 5729 5732 5734 5737 5739 5742 5744 5747 5749 5751 5752 5754 5756 5757 5759 5760 5761 5762 5764 5765 5766 5768 5769 5770 5771 5771 5772 5772 5773 5773 5773
5714 5713 5712 5712 5711 5711 5711 5711 5712 5712 5712 5713 5715 5716 5718 5720 5722 5723 5725 5728 5730 5732 5734 5737 5739 5741 5743 5745 5746 5748 5749 5750 5752 5752 5753 5754 5756 5757 5758 5760 5761 5762 5763 5763 5764 5764 5764 5765 5764
5711 5710 5710 5709 5709 5708 5709 5708 5709 5709 5709 5711 5712 5713 5714 5716 5718 5719 5721 5724 5726 5728 5729 5731 5733 5735 5737 5739 5740 5741 5742 5743 5744 5745 5745 5747 5748 5749 5750 5752 5753 5754 5754 5755 5755 5755 5755 5755 5755
5708 5707 5707 5706 5706 5706 5706 5705 5707 5706 5706 5707 5708 5710 5711 5712 5714 5716 5718 5720 5722 5723 5725 5726 5728 5729 5731 5732 5733 5734 5735 5736 5737 5737 5738 5739 5740 5741 5742 5743 5744 5745 5745 5746 5746 5746 5745 5745 5745
5704 5704 5704 5703 5702 5703 5703 5702 5703 5703 5703 5704 5705 5706 5707 5709 5710 5712 5713 5715 5717 5718 5720 5721 5722 5722 5723 5725 5726 5727 5728 5729 5729 5730 5730 5730 5731 5732 5733 5734 5735 5735 5736 5736 5736 5735 5735 5735 5735
5701 5701 5700 5699 5698 5699 5700 5699 5700 5700 5700 5700 5700 5701 5703 5704 5706 5707 5709 5710 5712 5713 5714 5715 5715 5716 5717 5718 5718 5719 5720 5721 5721 5722 5722 5722 5722 5723 5724 5724 5725 5725 5725 5725 5725 5725 5725 5724 5724
5696 5697 5697 5696 5695 5695 5695 5695 5697 5696 5695 5695 5696 5697 5698 5699 5701 5702 5703 5704 5705 5706 5707 5708 5708 5709 5710 5710 5711 5711 5712 5712 5712 5712 5713 5713 5713 5713 5714 5714 5715 5715 5715 5714 5714 5714 5713 5713 5712
5692 5692 5692 5691 5690 5690 5690 5691 5691 5691 5691 5691 5691 5692 5693 5694 5695 5696 5697 5697 5698 5699 5699 5700 5701 5701 5701 5702 5702 5702 5703 5703 5703 5703 5703 5703 5703 5703 5703 5703 5704 5703 5703 5703 5703 5702 5701 5701 5700
5686 5686 5686 5685 5685 5684 5685 5685 5686 5686 5686 5686 5686 5686 5687 5687 5688 5689 5689 5690 5690 5691 5691 5691 5692 5692 5692 5692 5692 5692 5692 5693 5693 5693 5693 5693 5693 5692 5692 5692 5692 5691 5691 5691 5690 5690 5689 5688 5687
5681 5680 5679 5679 5679 5679 5678 5682 5680 5679 5679 5680 5680 5679 5680 5681 5681 5681 5682 5682 5682 5682 5682 5683 5682 5682 5683 5682 5682 5682 5682 5682 5682 5682 5682 5682 5681 5681 5681 5680 5680 5679 5679 5678 5677 5677 5676 5675 5674
5673 5673 5673 5673 5673 5672 5671 5676 5673 5673 5672 5672 5672 5672 5672 5673 5673 5673 5674 5673 5673 5673 5673 5673 5673 5673 5673 5672 5672 5672 5672 5671 5671 5671 5671 5670 5670 5669 5669 5668 5667 5667 5666 5665 5664 5663 5662 5661 5660